Portada
METAR-TAF:

METAR-TAF

Aeroports :

Asaluyeh, Iran

latitud: 27-22-46N, longitud: 52-44-15E, altitud: 8 m

Observació

L'informe es va fer fa 4 hores i 50 minuts, a les 18:00 UTC
Vent calma
Temperatura 20°C
Humitat 53%
Pressió 1016 hPa
Visibilitat 10 km o més
sense núvols per sota de 1500 mi sense presència de cumulonimbus.

METAR: OIBP 131800Z 00000KT CAVOK 20/10 Q1015 A2999

Hora: 02:20 (22:50 UTC)


TAF: manca

Observacions i pronòstics meteorològics de més de 4000 aeroports (METAR i TAF).

Les estacions disponibles són els punts grocs i vermells al mapa.

Posi el ratolí al punt desitjat per veure el nom de l'estació.

Feu clic per veure les observacions i els pronòstics meteorològics.

Per canviar el mapa: feu clic els botons verds amb una creu de color negre per apropar; al botó verd amb un guió per allunyar la imatge; o en les fletxes verdes per a mapes adjacents.


METAR-TAF: